Regional Weather Roundup
Issued by NWS Green Bay, WI

Home | Current Version | Previous Version | Graphics & Text | Print | Product List | Glossary Off
Versions: 1 2 3 4 5 6 7 8 9 10 11 12 13 14 15 16 17 18 19 20 21 22 23 24 25 26 27 28 29 30 31 32 33 34 35 36 37 38 39 40 41 42 43 44 45 46 47 48 49 50

000
ASUS43 KGRB 040300
RWRGRB

NORTH-CENTRAL AND NORTHEAST WISCONSIN REGIONAL WEATHER ROUNDUP
NATIONAL WEATHER SERVICE GREEN BAY WI
1000 PM CDT MON AUG 03 2015

WIZ005-009-010>012-018-019-040400-
NORTH CENTRAL WISCONSIN

CITY           SKY/WX    TMP DP  RH WIND       PRES   REMARKS
IRONWOOD       CLOUDY    59  57  94 W7        29.86R
MANITOWISH WTR NOT AVBL
ARBOR VITAE    NOT AVBL
EAGLE RIVER    NOT AVBL
LAND O LAKES   NOT AVBL
RHINELANDER    MOCLDY    59  54  83 W6        29.89R
PHILLIPS       CLOUDY    63  56  78 CALM      29.88S
ANTIGO         NOT AVBL
TOMAHAWK       NOT AVBL
MERRILL        NOT AVBL
$$

WIZ013-073-040400-
NORTHEAST WISCONSIN

CITY           SKY/WX    TMP DP  RH WIND       PRES   REMARKS
IRON MOUNTAIN  LGT RAIN  62  54  74 W7        29.84R
MARINETTE      PTCLDY    63  52  67 CALM      29.84R
$$

WIZ017-030-035>037-045-040400-
CENTRAL WISCONSIN

CITY           SKY/WX    TMP DP  RH WIND       PRES   REMARKS
MEDFORD        NOT AVBL
WAUSAU         PTCLDY    64  53  67 W5        29.87S
MOSINEE        NOT AVBL
MARSHFIELD     CLEAR     60  53  77 W3        29.90R
WISC RAPIDS    CLEAR     62  53  72 CALM      29.91R
STEVENS POINT  NOT AVBL
WAUPACA        NOT AVBL
SHAWANO        NOT AVBL
CLINTONVILLE   PTCLDY    64  54  68 NW3       29.87R
$$

WIZ038-039-048-051-040400-
FOX VALLEY

CITY           SKY/WX    TMP DP  RH WIND       PRES   REMARKS
NWS GREEN BAY  CLOUDY    66  57  72 NW6       29.86R
APPLETON       NOT AVBL
OSHKOSH        CLEAR     67  53  61 NW6       29.88R
FOND DU LAC    CLEAR     67  55  65 W7        29.89R
$$

WIZ022-050-052-040400-
EAST CENTRAL WISCONSIN

CITY           SKY/WX    TMP DP  RH WIND       PRES   REMARKS
STURGEON BAY   CLEAR     64  52  63 NW3       29.87R
MANITOWOC      NOT AVBL
SHEBOYGAN      MOCLDY    67  56  67 NW5       29.87R
$$

LMZ563-521-522-541>543-040400-
LAKESHORE

STATION/POSITION TIME  TEMP    WIND        PRES    VSBY  WAVE
                       AIR SEA DIR/SP/G                  HT/PER
                 (UTC) (F)     (DEG/KT/KT) (MB)    (MI)  (FT/S)
SHEBOYGAN LKSHOR 0200   72     320/  7/  8 1010.9R
KEWAUNEE LKSHORE 0200   67     310/  2/  3 1009.9R
ALGOMA MARINA    0212          340/  8/  9   N/A
NORTHPORT PIER   0200   69     300/  8/ 11 1009.8R
N MID LAKE BUOY  0150   65 68   50/  4/  4 1009.5R         1/ 3
SISTER BAY LKSHO 0203   70     340/ 15/ 18   N/A
CHAMBERS ISLAND  0200   65     290/  2/  4 1010.2R
MENOMINEE LKSHOR 0200   68     280/  4/  5 1011.0R
$$


USA.gov is the U.S. government's official web portal to all federal, state and local government web resources and services.